Flag for Switzerland Weather past 2 weeks in Worb, Bern, Switzerland

Now
99 °F

Passing clouds.


Feels Like: 97 °F
Forecast: 58 / 74 °F
Wind: 9 mph from West

Location: Bern / Belp

Current Time: Jul 7, 2015 at 4:20:17 PM

Latest Report: Jul 7, 2015 at 3:50 PM


Visibility: N/A

Pressure: 29.89 "Hg (28.03 "Hg at 583m altitude)

Humidity: 24%

Dew point: 55 °F

Location of WorbLocation

Historic Weather in Worb — Graph

°F

Worb temperature yesterday

Maximum temperature yesterday: 90 °F (at 3:50 PM)
Minimum temperature yesterday: 66 °F (at 6:50 AM)
Average temperature yesterday: 79 °F

Past Weeks' High & Low Weather Summary

 TemperatureHumidityPressure
High99 °F (Jul 7, 3:20 PM)100% (Jun 23, 1:20 AM)30.30 "Hg (Jun 23, 1:20 AM)
Low43 °F (Jun 24, 4:50 AM)24% (Jun 26, 5:20 PM)29.77 "Hg (Jun 22, 9:20 PM)
Average71 °F67%30.13 "Hg
* Reported Jun 22 3:20 PM — Jul 7 3:20 PM, Worb, Weather by CustomWeather, © 2015

Note: Actual official high and low records may vary slightly from our data, if they occured in-between our weather recording intervals... More about our weather records

Advertising

Worb weather history for previous 24 hours

 ConditionsComfort  
Time TempWeatherWind HumidityBarometerVisibility
3:20 PM
Tue, Jul 7
99 °FPassing clouds.6 mph31%29.89 "HgN/A
2:50 PM97 °FPassing clouds.7 mph32%29.92 "HgN/A
2:20 PM93 °FSunny.6 mph44%29.92 "Hg10 mi
1:50 PM93 °FSunny.7 mph44%29.95 "Hg10 mi
1:20 PM91 °FSunny.6 mph49%29.95 "Hg10 mi
12:50 PM90 °FSunny.3 mph49%29.98 "Hg10 mi
12:20 PM88 °FSunny.3 mph52%29.98 "Hg10 mi
11:50 AM86 °FSunny.3 mph52%29.98 "Hg10 mi
11:20 AM86 °FPassing clouds.3 mph55%30.01 "HgN/A
10:50 AM84 °FPassing clouds.2 mph55%30.01 "HgN/A
10:20 AM82 °FPassing clouds.1 mph55%30.01 "HgN/A
9:50 AM81 °FPassing clouds.5 mph62%30.04 "HgN/A
9:20 AM79 °FSunny.3 mph65%30.04 "Hg10 mi
8:50 AM79 °FSunny.5 mph70%30.04 "Hg10 mi
8:20 AM75 °FSunny.7 mph78%30.04 "Hg10 mi
7:50 AM73 °FSunny.3 mph83%30.04 "Hg10 mi
7:20 AM70 °FClear.1 mph94%30.04 "Hg5 mi
6:50 AM66 °FClear.1 mph100%30.04 "Hg5 mi
6:20 AM64 °FPassing clouds.1 mph100%30.04 "Hg5 mi
5:50 AM64 °FPassing clouds.2 mph100%30.04 "Hg5 mi
5:20 AM64 °FFog.1 mph100%30.04 "Hg3 mi
4:50 AM66 °FMild.1 mph100%30.04 "Hg5 mi
4:20 AM66 °FMild.No wind94%30.04 "Hg5 mi
3:50 AM66 °FMild.1 mph100%30.04 "Hg4 mi
3:20 AM66 °FPassing clouds.3 mph100%30.07 "Hg6 mi
2:50 AM66 °FPassing clouds.1 mph100%30.07 "Hg4 mi
2:20 AM66 °FMild.1 mph100%30.07 "Hg4 mi
1:50 AM68 °FPassing clouds.1 mph94%30.07 "Hg6 mi
1:20 AM68 °FPassing clouds.1 mph94%30.07 "Hg6 mi
12:50 AM68 °FClear.1 mph100%30.07 "Hg10 mi
12:20 AM68 °FClear.1 mph100%30.07 "Hg10 mi
11:50 PM
Mon, Jul 6
70 °FClear.1 mph94%30.07 "Hg10 mi
11:20 PM72 °FClear.2 mph88%30.09 "Hg10 mi
10:50 PM72 °FClear.3 mph88%30.09 "Hg10 mi
10:20 PM75 °FSunny.1 mph78%30.09 "Hg10 mi
9:50 PM77 °FSunny.1 mph74%30.07 "Hg10 mi
9:20 PM81 °FSunny.1 mph66%30.07 "Hg10 mi
8:50 PM82 °FPassing clouds.3 mph62%30.07 "HgN/A
8:20 PM84 °FSunny.2 mph55%30.09 "Hg10 mi
7:50 PM86 °FPassing clouds.5 mph52%30.07 "HgN/A
7:20 PM90 °FPassing clouds.5 mph41%30.07 "HgN/A
6:50 PM90 °FPassing clouds.7 mph43%30.07 "HgN/A
6:20 PM90 °FSunny.7 mph43%30.07 "Hg10 mi
5:50 PM90 °FSunny.5 mph43%30.09 "Hg10 mi
5:20 PM88 °FPassing clouds.3 mph46%30.09 "HgN/A
4:50 PM88 °FSunny.2 mph49%30.09 "Hg10 mi
4:20 PM90 °FSunny.3 mph46%30.12 "Hg10 mi
Weather by CustomWeather, © 2015

See weather overviewHow to use our weather pages